Regional Weather Roundup
Issued by NWS

Home | Current Version | Previous Version | Text Only | Print | Product List | Glossary Off
Versions: 1 2 3 4 5 6 7 8 9 10 11 12 13 14 15 16 17 18 19 20 21 22 23 24 25 26 27 28 29 30 31 32 33 34 35 36 37 38 39 40 41 42 43 44 45 46 47 48 49 50

000
ASUS43 KFSD 090010
RWRSD

WEATHER ROUNDUP FOR SOUTH DAKOTA
NATIONAL WEATHER SERVICE SIOUX FALLS SD
600 PM CST THU DEC 08 2016

NOTE: "FAIR" INDICATES FEW OR NO CLOUDS BELOW 12,000 FEET WITH NO
SIGNIFICANT WEATHER AND/OR OBSTRUCTIONS TO VISIBILITY.


SDZ001>005-009-010-012>017-090100-
NORTHWEST AND NORTH CENTRAL SOUTH DAKOTA

CITY           SKY/WX    TMP DP  RH WIND       PRES   REMARKS
BUFFALO          N/A     -1  -7  75 N10       30.41F WCI -17
FAITH            N/A     -4  -7  87 NW5       30.55S WCI -15
MOBRIDGE       CLEAR      3  -6  66 NW12      30.59F WCI -13
$$

SDZ012>016-024>037-041>051-057-063-072>074-090100-
SOUTHWEST AND SOUTH CENTRAL SOUTH DAKOTA

CITY           SKY/WX    TMP DP  RH WIND       PRES   REMARKS
RAPID CTY ARPT CLEAR      0  -8  69 NE9       30.48S WCI -15
PIERRE         CLOUDY     5  -1  76 N12       30.62S WCI -11
CUSTER         CLOUDY     1  -8  66 S3        30.24F
ELLSWORTH AFB  CLEAR      6  -5  59 NE6       30.46F WCI  -4
PHILIP         CLEAR     -1  -6  79 NE5       30.59S WCI -11
PINE RIDGE     CLOUDY    -1  -8  72 NE8       30.47F WCI -15
SPEARFISH      FAIR      -2  -9  71 CALM      30.41S
WINNER         FAIR       5  -2  72 NW7       30.61S WCI  -7
$$

SDZ004>011-016>023-039-040-090100-
NORTHEAST SOUTH DAKOTA

CITY           SKY/WX    TMP DP  RH WIND       PRES   REMARKS
ABERDEEN       CLEAR      4  -3  73 NW8       30.64R WCI  -9
WATERTOWN      CLEAR      8   3  80 NW13      30.54R WCI  -8
BROOKINGS      CLEAR      8   5  87 NW10      30.55R WCI  -6
SISSETON         N/A      7   1  76 NW13      30.58R WCI  -9
$$

SDZ017-020-022-023-036>040-048>070-090100-
SOUTHEAST SOUTH DAKOTA

CITY           SKY/WX    TMP DP  RH WIND       PRES   REMARKS
SIOUX FALLS    CLEAR     13   7  77 NW12      30.58R WCI  -1
HURON          CLEAR      7   2  80 NW13      30.64S WCI  -9
CHAMBERLAIN    MOCLDY     9   4  81 NW10      30.64R WCI  -5
MITCHELL       CLEAR      9   3  77 NW9       30.65R WCI  -4
YANKTON        CLEAR     14   3  62 W13       30.63R WCI   0
$$

ABBREVIATIONS USED IN REMARKS
   TC - TEMPERATURE IN CELSIUS
  WCI - WIND CHILL INDEX
   HX - HEAT INDEX
  VSB - VISIBILITY




USA.gov is the U.S. government's official web portal to all federal, state and local government web resources and services.